Location: Unspecified
(0.0000°N, 0.0000°E)
Time: 14:37:44
(UTC+00:00)

CZ-3B DEB - Pass Details

Date: 23 February 2026
Orbit: 979 x 42142 km, 20.1° (Epoch: 15 November)

Event Time Altitude Azimuth Distance (km) Brightness Sun altitude
Exits shadow 02:08:13 33° 46° (NE) 4,042 ? -59.8°
Maximum altitude 12:34:51 61° 145° (SE) 26,600 ? 78.9°
Drops below altitude 10° 14:19:40 10° 95° (E) 9,015 ? 57.1°
Sets 14:23:45 0° 91° (E) 8,866 ? 56.1°
